Remire Island Airport


Codes: FSSR/
Name: Remire Island Airport
City: Remire Island
Country: Seychelles
Elevation: 9 ft.

Photos at Remire Island Airport


   Photos courtesy of SpottingLog. You can add your own sightings and photos by signing up for a free trial today.



No photos found.

Weather at Remire Island Airport


Time (UTC)DescriptionTempratureWindCloud coverageVisibilityPressureHumidity
21-Feb-2024 03:00Light Rain28°C11 mph, N96%10000m1011hPa80%
21-Feb-2024 06:00Light Rain28°C11 mph, N94%10000m1011hPa79%
21-Feb-2024 09:00Light Rain28°C11 mph, N90%10000m1010hPa78%
21-Feb-2024 12:00Light Rain28°C11 mph, N89%10000m1009hPa79%
21-Feb-2024 15:00Light Rain29°C11 mph, N100%10000m1011hPa77%
21-Feb-2024 18:00Light Rain29°C11 mph, N100%10000m1012hPa76%
21-Feb-2024 21:00Light Rain29°C13 mph, N100%10000m1010hPa76%
22-Feb-2024 00:00Light Rain29°C11 mph, N100%10000m1010hPa75%
22-Feb-2024 03:00Light Rain29°C11 mph, N100%10000m1011hPa75%
22-Feb-2024 06:00Moderate Rain29°C11 mph, NE100%10000m1012hPa78%
22-Feb-2024 09:00Light Rain29°C11 mph, NE100%10000m1011hPa75%
22-Feb-2024 12:00Light Rain29°C11 mph, NE100%10000m1009hPa76%
22-Feb-2024 15:00Light Rain29°C13 mph, NE100%10000m1011hPa78%
22-Feb-2024 18:00Overcast Clouds29°C16 mph, NE100%10000m1011hPa78%
22-Feb-2024 21:00Light Rain29°C16 mph, NE97%10000m1010hPa73%
23-Feb-2024 00:00Light Rain28°C13 mph, NE95%7444m1010hPa81%
23-Feb-2024 03:00Light Rain29°C11 mph, NE99%10000m1011hPa76%
23-Feb-2024 06:00Overcast Clouds29°C13 mph, NE95%10000m1013hPa73%
23-Feb-2024 09:00Overcast Clouds29°C9 mph, NE94%10000m1011hPa74%
23-Feb-2024 12:00Overcast Clouds29°C9 mph, NE97%10000m1009hPa74%
23-Feb-2024 15:00Light Rain29°C9 mph, E100%10000m1011hPa75%
23-Feb-2024 18:00Light Rain29°C11 mph, E100%10000m1012hPa76%
23-Feb-2024 21:00Light Rain28°C9 mph, SE100%10000m1011hPa78%
24-Feb-2024 00:00Moderate Rain28°C9 mph, SE100%10000m1010hPa79%
24-Feb-2024 03:00Light Rain29°C9 mph, SE88%10000m1012hPa77%
24-Feb-2024 06:00Light Rain28°C11 mph, SE88%10000m1013hPa79%
24-Feb-2024 09:00Light Rain28°C9 mph, SE98%10000m1011hPa78%
24-Feb-2024 12:00Light Rain29°C9 mph, SE99%10000m1009hPa74%
24-Feb-2024 15:00Light Rain29°C7 mph, SE100%10000m1010hPa73%
24-Feb-2024 18:00Light Rain29°C7 mph, SE100%10000m1012hPa76%
24-Feb-2024 21:00Light Rain28°C9 mph, SE100%10000m1011hPa78%
25-Feb-2024 00:00Light Rain28°C7 mph, S100%10000m1009hPa73%
25-Feb-2024 03:00Overcast Clouds28°C7 mph, SE100%10000m1011hPa74%
25-Feb-2024 06:00Light Rain29°C7 mph, S100%10000m1012hPa76%
25-Feb-2024 09:00Light Rain29°C4 mph, S91%10000m1010hPa74%
25-Feb-2024 12:00Light Rain28°C4 mph, SW93%10000m1009hPa75%
25-Feb-2024 15:00Light Rain28°C2 mph, SW100%10000m1010hPa74%
25-Feb-2024 18:00Light Rain28°C2 mph, W100%10000m1012hPa72%
25-Feb-2024 21:00Light Rain28°C4 mph, W100%10000m1010hPa72%
26-Feb-2024 00:00Light Rain28°C7 mph, W98%10000m1009hPa73%